Regional Weather Roundup
Issued by NWS Spokane, WA

Home | Current Version | Previous Version | Text Only | Print | Product List | Glossary On
Versions: 1 2 3 4 5 6 7 8 9 10 11 12 13 14 15 16 17 18 19 20 21 22 23 24 25 26 27 28 29 30 31 32 33 34 35 36 37 38 39 40 41 42 43 44 45 46 47 48 49 50
000
NZUS01 KOTX 020510
RWROTX
EASTERN WASHINGTON/NORTHERN IDAHO ROUNDUP
NATIONAL WEATHER SERVICE, SPOKANE WA
900 PM PST SUN MAR 01 2015

Note: "fair" indicated few or no clouds below 12,000 feet with no
significant weather and/or obstructions to visibility.

...NORTHEAST WASHINGTON AND NORTHERN IDAHO PANHANDLE...

CITY           SKY/WX    TMP DP  RH WIND       PRES   REMARKS
SPOKANE INTL   CLOUDY    35  15  44 SE5       29.94F
SPOKANE DOWNTO MOCLDY    34  13  41 CALM      29.97S
COEUR D ALENE  MOCLDY    30  16  55 NE5       29.95S WCI  25
DEER PARK      PTCLDY    29  14  53 N5        29.96F WCI  24
SANDPOINT      PTCLDY    28  19  69 CALM      29.97S
BONNERS FERRY  CLOUDY    32   9  37 CALM      29.95F

...SOUTHEAST WASHINGTON AND SOUTHERN IDAHO PANHANDLE...

CITY           SKY/WX    TMP DP  RH WIND       PRES   REMARKS
WALLA WALLA    MOCLDY    41  23  48 SE7       29.93F
PULLMAN/MOSCOW MOCLDY    33  21  61 CALM      29.96F
LEWISTON       MOCLDY    38  19  46 CALM      29.98F
LOWELL           N/A     30  22  72 N3        30.04R

...COLUMBIA BASIN...

CITY           SKY/WX    TMP DP  RH WIND       PRES   REMARKS
EPHRATA        CLOUDY    38  21  50 NE5       29.94F
MOSES LAKE     CLOUDY    38  20  48 SE5       29.95F
TRI CITIES     MOCLDY    40  20  44 CALM      29.96F
HERMISTON      MOCLDY    38  21  50 SE8       29.93F
PENDLETON      MOCLDY    33  21  61 SE8       29.93F WCI  26

...EAST SLOPES CASCADES...

CITY           SKY/WX    TMP DP  RH WIND       PRES   REMARKS
THE DALLES     CLOUDY    43  27  53 CALM      29.96F
YAKIMA         CLOUDY    41  27  57 W6        29.94F
ELLENSBURG     CLOUDY    41  24  51 E5        29.92S
WENATCHEE      CLOUDY    42  24  49 E5        29.93F
OMAK           CLOUDY    38  19  46 W5        29.96S

...SOUTHERN BRITISH COLUMBIA...

CITY           SKY/WX    TMP DP  RH WIND       PRES   REMARKS
PENTICTON      MOCLDY    37  25  60 N7        29.97R
CRANBROOK      MOCLDY    27  10  50 CALM      29.92F

...WESTERN MONTANA...

CITY           SKY/WX    TMP DP  RH WIND       PRES   REMARKS
MISSOULA       PTCLDY    27  13  55 N3        29.98S

...NEIGHBORING CITIES...

CITY           SKY/WX    TMP DP  RH WIND       PRES   REMARKS
SEATTLE        CLOUDY    46  31  55 N8        29.98S
CALGARY        PTCLDY    25  14  63 S3        29.76S



USA.gov is the U.S. government's official web portal to all federal, state and local government web resources and services.